Date String (YYYY-MM-DD hh:mm:ss) UTC,Instrument flags,absolute air pressure of the measurement (hPa),sample flow rate (lpm),inlet stack bypass flow (lpm),air temperature of the measurement (°C),ambient temperature measured by the external sensor (°C),aerosol sample conditioner tube jacket temperature (°C),OPC LED temperature (°C),internal box temperature (°C),relative humidity of the measurement (%),span deviation,mass concentration of particles derived from Lorenz-Mie calculation of OPC scattering (μg/m³),mass concentration of particles derived from Lorenz-Mie calculation of OPC scattering (μg/m³),mass concentration of particles derived from Lorenz-Mie calculation of OPC scattering (μg/m³)
DateTimeUTC,F1_M11,P_M11,Q1_M11,Q2_M11,T1_M11,T2_M11,T3_M11,T4_M11,T5_M11,U1_M11,ZSPAN_M11,X0_M11,X2_M11,X1_M11
2023-11-10 03:00:00,SystemResetWarning,0834.5,5.00,000.00,025.4,024.2,000.0,033.9,026.8,10.6,0000.0,0011.26,0004.72,0003.74
2023-11-10 03:01:00,SystemResetWarning,0834.5,5.00,000.00,025.4,024.2,000.0,033.8,026.8,10.6,0000.0,0010.50,0004.72,0003.76
2023-11-10 03:02:00,SystemResetWarning,0834.5,5.00,000.00,025.4,024.2,000.0,033.8,026.7,10.7,0000.0,0010.20,0004.71,0003.77
2023-11-10 03:03:00,SystemResetWarning,0834.5,5.00,000.00,025.4,024.2,000.0,033.8,026.7,11.0,0000.0,0010.65,0004.75,0003.80
2023-11-10 03:04:00,SystemResetWarning,0834.5,5.00,000.00,025.4,024.2,000.0,033.8,026.6,11.1,0000.0,0010.82,0004.75,0003.81
2023-11-10 03:05:00,SystemResetWarning,0834.5,5.00,000.00,025.3,024.1,000.0,033.8,026.6,11.1,0000.0,0010.41,0004.74,0003.83
2023-11-10 03:06:00,SystemResetWarning,0834.5,5.00,000.00,025.3,024.1,000.0,033.8,026.7,11.2,0000.0,0010.49,0004.78,0003.85
2023-11-10 03:07:00,SystemResetWarning,0834.5,5.00,000.00,025.3,024.1,000.0,033.8,026.6,11.2,0000.0,0010.43,0004.76,0003.86
2023-11-10 03:08:00,SystemResetWarning,0834.5,5.00,000.00,025.3,024.1,000.0,033.8,026.6,11.3,0000.0,0010.19,0004.74,0003.89
2023-11-10 03:09:00,SystemResetWarning,0834.5,5.00,000.00,025.3,024.1,000.0,033.8,026.6,11.2,0000.0,0009.85,0004.72,0003.91
2023-11-10 03:10:00,SystemResetWarning,0834.5,5.00,000.00,025.2,024.0,000.0,033.7,026.6,11.2,0000.0,0009.82,0004.76,0003.96
2023-11-10 03:11:00,SystemResetWarning,0834.5,5.00,000.00,025.2,024.0,000.0,033.7,026.6,11.3,0000.0,0009.65,0004.78,0003.99
2023-11-10 03:12:00,SystemResetWarning,0834.5,5.01,000.00,025.2,024.0,000.0,033.7,026.5,11.2,0000.0,0009.85,0004.78,0004.02
2023-11-10 03:13:00,SystemResetWarning,0834.5,5.01,000.00,025.2,024.0,000.0,033.7,026.5,11.4,0000.0,0010.37,0004.80,0004.04
2023-11-10 03:14:00,SystemResetWarning,0834.5,5.01,000.00,025.2,023.9,000.0,033.7,026.5,11.4,0000.0,0010.15,0004.79,0004.05
2023-11-10 03:15:00,SystemResetWarning,0834.5,5.01,000.00,025.2,023.9,000.0,033.7,026.5,11.5,0000.0,0009.76,0004.81,0004.08
2023-11-10 03:16:00,SystemResetWarning,0834.4,5.00,000.00,025.1,023.9,000.0,033.7,026.5,11.3,0000.0,0010.13,0004.83,0004.10
2023-11-10 03:17:00,SystemResetWarning,0834.4,5.00,000.00,025.1,023.9,000.0,033.6,026.5,11.6,0000.0,0010.55,0004.80,0004.10
2023-11-10 03:18:00,SystemResetWarning,0834.4,4.99,000.00,025.1,023.9,000.0,033.6,026.5,11.5,0000.0,0010.54,0004.80,0004.11
2023-11-10 03:19:00,SystemResetWarning,0834.5,5.00,000.00,025.1,023.9,000.0,033.6,026.4,11.4,0000.0,0010.76,0004.82,0004.11
2023-11-10 03:20:00,SystemResetWarning,0834.4,5.00,000.00,025.1,023.9,000.0,033.6,026.5,11.3,0000.0,0010.72,0004.83,0004.13
2023-11-10 03:21:00,SystemResetWarning,0834.4,5.00,000.00,025.1,023.8,000.0,033.6,026.4,11.4,0000.0,0010.98,0004.83,0004.12
2023-11-10 03:22:00,SystemResetWarning,0834.3,5.00,000.00,025.1,023.8,000.0,033.6,026.4,11.1,0000.0,0011.36,0004.83,0004.12
2023-11-10 03:23:00,SystemResetWarning,0834.4,5.00,000.00,025.0,023.8,000.0,033.6,026.3,10.6,0000.0,0011.16,0004.85,0004.12
2023-11-10 03:24:00,SystemResetWarning,0834.3,5.00,000.00,025.0,023.8,000.0,033.6,026.4,11.0,0000.0,0010.57,0004.84,0004.12
2023-11-10 03:25:00,SystemResetWarning,0834.3,5.00,000.00,025.0,023.9,000.0,033.5,026.4,10.9,0000.0,0010.47,0004.82,0004.12
2023-11-10 03:26:00,SystemResetWarning,0834.3,5.00,000.00,025.0,023.8,000.0,033.5,026.4,11.0,0000.0,0010.37,0004.82,0004.12
2023-11-10 03:27:00,SystemResetWarning,0834.3,5.01,000.00,025.0,023.8,000.0,033.5,026.4,11.0,0000.0,0010.31,0004.76,0004.10
2023-11-10 03:28:00,SystemResetWarning,0834.3,5.01,000.00,025.0,023.8,000.0,033.5,026.3,11.0,0000.0,0009.77,0004.78,0004.11
2023-11-10 03:29:00,SystemResetWarning,0834.3,5.01,000.00,025.0,023.8,000.0,033.5,026.3,11.0,0000.0,0009.77,0004.77,0004.11
2023-11-10 03:30:00,SystemResetWarning,0834.3,5.00,000.00,025.0,023.8,000.0,033.5,026.3,11.0,0000.0,0009.95,0004.78,0004.11
2023-11-10 03:31:00,SystemResetWarning,0834.4,5.00,000.00,025.0,023.7,000.0,033.5,026.3,10.9,0000.0,0010.13,0004.80,0004.10
2023-11-10 03:32:00,SystemResetWarning,0834.3,5.00,000.00,024.9,023.7,000.0,033.4,026.3,11.0,0000.0,0010.16,0004.82,0004.09
2023-11-10 03:33:00,SystemResetWarning,0834.4,5.00,000.00,024.9,023.7,000.0,033.4,026.3,11.1,0000.0,0009.60,0004.81,0004.08
2023-11-10 03:34:00,SystemResetWarning,0834.3,5.00,000.00,024.9,023.8,000.0,033.4,026.2,11.2,0000.0,0009.65,0004.81,0004.08
2023-11-10 03:35:00,SystemResetWarning,0834.3,5.00,000.00,024.9,023.7,000.0,033.4,026.2,11.3,0000.0,0009.79,0004.80,0004.08
2023-11-10 03:36:00,SystemResetWarning,0834.3,5.00,000.00,024.9,023.7,000.0,033.4,026.2,11.4,0000.0,0009.51,0004.79,0004.08
2023-11-10 03:37:00,SystemResetWarning,0834.3,5.01,000.00,024.9,023.6,000.0,033.4,026.2,11.4,0000.0,0009.41,0004.75,0004.10
2023-11-10 03:38:00,SystemResetWarning,0834.3,5.01,000.00,024.8,023.6,000.0,033.4,026.2,11.5,0000.0,0009.17,0004.78,0004.12
2023-11-10 03:39:00,SystemResetWarning,0834.3,5.00,000.00,024.8,023.5,000.0,033.3,026.2,11.5,0000.0,0009.17,0004.77,0004.13
2023-11-10 03:40:00,SystemResetWarning,0834.3,4.99,000.00,024.8,023.5,000.0,033.3,026.2,11.5,0000.0,0009.34,0004.79,0004.14
2023-11-10 03:41:00,SystemResetWarning,0834.5,4.99,000.00,024.8,023.5,000.0,033.3,026.1,11.4,0000.0,0009.19,0004.77,0004.15
2023-11-10 03:42:00,SystemResetWarning,0834.5,5.00,000.00,024.8,023.5,000.0,033.3,026.1,11.3,0000.0,0008.90,0004.76,0004.16
2023-11-10 03:43:00,SystemResetWarning,0834.6,4.99,000.00,024.8,023.5,000.0,033.3,026.1,11.4,0000.0,0008.79,0004.75,0004.17
2023-11-10 03:44:00,SystemResetWarning,0834.4,5.00,000.00,024.7,023.5,000.0,033.3,026.0,11.4,0000.0,0009.34,0004.74,0004.18
2023-11-10 03:45:00,SystemResetWarning,0834.5,5.01,000.00,024.7,023.5,000.0,033.3,026.0,11.5,0000.0,0009.67,0004.76,0004.19
2023-11-10 03:46:00,SystemResetWarning,0834.3,5.00,000.00,024.7,023.5,000.0,033.2,026.0,11.5,0000.0,0009.60,0004.80,0004.20
2023-11-10 03:47:00,SystemResetWarning,0834.4,5.00,000.00,024.7,023.4,000.0,033.2,026.0,11.5,0000.0,0009.72,0004.83,0004.20
2023-11-10 03:48:00,SystemResetWarning,0834.3,5.00,000.00,024.7,023.4,000.0,033.2,026.0,11.5,0000.0,0009.68,0004.84,0004.20
2023-11-10 03:49:00,SystemResetWarning,0834.2,5.00,000.00,024.6,023.4,000.0,033.2,026.0,11.5,0000.0,0009.69,0004.84,0004.20
2023-11-10 03:50:00,SystemResetWarning,0834.2,4.99,000.00,024.6,023.4,000.0,033.2,026.0,11.4,0000.0,0009.80,0004.84,0004.19
2023-11-10 03:51:00,SystemResetWarning,0834.2,4.99,000.00,024.6,023.3,000.0,033.2,026.0,11.4,0000.0,0009.76,0004.83,0004.18
2023-11-10 03:52:00,SystemResetWarning,0834.2,5.01,000.00,024.6,023.3,000.0,033.1,026.0,11.4,0000.0,0009.98,0004.84,0004.17
2023-11-10 03:53:00,SystemResetWarning,0834.2,5.01,000.00,024.6,023.3,000.0,033.1,025.9,11.4,0000.0,0010.33,0004.87,0004.17
2023-11-10 03:54:00,SystemResetWarning,0834.2,4.99,000.00,024.6,023.3,000.0,033.1,025.9,11.5,0000.0,0010.63,0004.87,0004.18
2023-11-10 03:55:00,SystemResetWarning,0834.2,4.99,000.00,024.6,023.3,000.0,033.1,025.9,11.5,0000.0,0010.27,0004.86,0004.19
2023-11-10 03:56:00,SystemResetWarning,0834.2,5.00,000.00,024.6,023.3,000.0,033.1,025.9,11.4,0000.0,0009.64,0004.85,0004.19
2023-11-10 03:57:00,SystemResetWarning,0834.2,5.01,000.00,024.5,023.3,000.0,033.1,025.9,11.4,0000.0,0009.58,0004.81,0004.19
2023-11-10 03:58:00,SystemResetWarning,0834.2,5.01,000.00,024.5,023.3,000.0,033.1,025.9,11.4,0000.0,0009.36,0004.79,0004.19
2023-11-10 03:59:00,SystemResetWarning,0834.2,5.00,000.00,024.5,023.3,000.0,033.0,025.9,11.4,0000.0,0009.50,0004.78,0004.18
